星链-11462 (STARLINK-11462)

导读 | 星芒AI

STARLINK-11462 是 SpaceX Starlink 卫星互联网项目中的一颗低轨卫星,属于第 11 批部署的星链卫星之一。该卫星于 2021 年 5 月发射,旨在为全球用户提供高速互联网服务。它运行在约 550 公里的轨道高度,采用先进的相控阵天线和激光通信技术,以提升连接速度和稳定性。Starlink 项目由数千颗卫星组成,致力于改善偏远地区的网络覆盖,推动全球宽带普及。

基本信息
目录编号:
62412
目录名称:
STARLINK-11462
国际标识:
2024-249D
轨道中心:
EARTH
卫星名称:
星链-11462
卫星全名:
星链-11462 (STARLINK-11462)
卫星状态:
在轨 (已飞行363 天)
发射日期:
2024-12-23 UTC
国别 :
美国 (US)
星等 :
--
轨道信息
数据来源 国际轨道数据
星历时间: 2025-12-21T12:25:58+0800
16小时前
查看轨道信息
半长轴: 6734.526km
偏心率: 0.0001674
轨道倾角: 43.000°
近地点辐角 271.471°
升交点赤经 280.876°
平近点角 88.596°
近地点: 355.261km
远地点: 357.517km
周期: 91.669分钟
每日圈数: 15.708773
详细信息
固有亮度:
5
最大亮度:
2.5
卫星平台:
Starlink V1.0
覆盖范围:
全球
运营商:
太空探索技术公司
运营商所在国:
美国
制造商(研发单位):
太空探索技术公司
制造商所在国:
美国
使用方式:
暂无
卫星简介
Starlink 计划是 SpaceX 推出的全球卫星互联网项目,通过发射低轨道卫星,为全球尤其是偏远地区提供高速、低延迟的互联网服务。自 2019 年起,Starlink 已部署数千颗卫星,旨在缩小全球数字鸿沟,推动互联网普及。该项目还为军事、航空等行业提供通信支持,带来广泛经济效益。
2D轨道图
3D轨道图
轨道高度分析图
轨道倾角分析图
轨道综合分析图
查看轨道综合分析图